Weather History for TAPA - August, 2013

Change the Weather History Date:

Monday, August 19, 2013

  Actual Average Record
Temperature  
Mean Temperature 82 °F -  
Max Temperature 87 °F 85 °F 98 °F (2006)
Min Temperature 78 °F 77 °F 69 °F (2008)
Cooling Degree Days 18    
Growing Degree Days 32 (Base 50)    
Moisture  
Dew Point 75 °F    
Average Humidity 77    
Maximum Humidity 89    
Minimum Humidity 59    
Precipitation  
Precipitation 0.03 in - - ()
Sea Level Pressure  
Sea Level Pressure 29.93 in    
Wind  
Wind Speed 9 mph ()    
Max Wind Speed 15 mph    
Max Gust Speed -    
Visibility 8.2 miles    
Events Rain    
Averages and records for this station are not official NWS values.
T = Trace of Precipitation, MM = Missing Value Source: Averaged Metar Reports

Daily Weather History Graph

Daily Weather History Graph

Search for Another Location

Airport or City:

Trip Planner

Search our weather history database for the weather conditions in past years. The results will help you decide how hot, cold, wet, or windy it might be!

Date:

Astronomy

Aug. 19, 2013 Rise Set
Actual Time 5:51 AM AST 6:29 PM AST
Civil Twilight 5:28 AM AST 6:52 PM AST
Nautical Twilight 5:02 AM AST 7:18 PM AST
Astronomical Twilight 4:36 AM AST 7:44 PM AST
Moon 5:16 PM AST (8/19) 4:10 AM AST (8/19)
Length of Visible Light 13h 23m
Length of Day
12h 38m
Waxing Gibbous, 97% of the Moon is Illuminated
Aug 19
Waxing Gibbous
Aug 20
Full
Aug 28
Last Quarter
Sep 5
New
Sep 12
First Quarter

Hourly Weather History & Observations

Time (AST) Temp. Heat Index Dew Point Humidity Pressure Visibility Wind Dir Wind Speed Gust Speed Precip Events Conditions
12:00 AM 80.6 °F 86.2 °F 75.2 °F 84% 29.98 in 6.2 mi East 8.1 mph - N/A   Scattered Clouds
1:00 AM 80.6 °F 86.2 °F 75.2 °F 84% 29.95 in 6.2 mi East 10.4 mph - N/A   Scattered Clouds
2:00 AM 81 °F - 75 °F 78% 29.97 in 16 mi East 11.5 mph - -   Widespread Dust
2:00 AM 80.6 °F 86.2 °F 75.2 °F 84% 29.95 in 6.2 mi East 11.5 mph - N/A   Scattered Clouds
3:00 AM 80.6 °F 86.2 °F 75.2 °F 84% 29.89 in 6.2 mi East 10.4 mph - N/A   Partly Cloudy
4:00 AM 82.4 °F 89.5 °F 75.2 °F 79% 29.89 in 6.2 mi East 9.2 mph - N/A   Partly Cloudy
5:00 AM 82 °F - 75 °F 74% 29.91 in 16 mi ESE 8.1 mph - -   Widespread Dust
5:00 AM 82.4 °F 89.5 °F 75.2 °F 79% 29.89 in 6.2 mi ESE 8.1 mph - N/A   Scattered Clouds
6:00 AM 80.6 °F 86.2 °F 75.2 °F 84% 29.92 in 6.2 mi East 5.8 mph - N/A   Partly Cloudy
7:00 AM 82.4 °F 89.5 °F 75.2 °F 79% 29.92 in 6.2 mi ESE 9.2 mph - N/A   Scattered Clouds
8:00 AM 84 °F - 76 °F 71% 29.94 in 15 mi East 10.4 mph - -   Partly Cloudy
8:00 AM 84.2 °F 94.1 °F 77.0 °F 79% 29.92 in 6.2 mi East 10.4 mph - N/A   Scattered Clouds
9:00 AM 84.2 °F 92.3 °F 75.2 °F 74% 29.95 in 6.2 mi ESE 12.7 mph - N/A   Scattered Clouds
10:00 AM 86.0 °F 95.1 °F 75.2 °F 70% 29.95 in 6.2 mi ESE 13.8 mph - N/A   Partly Cloudy
11:00 AM 87 °F - 75 °F 59% 29.96 in 16 mi ESE 12.7 mph - -   Widespread Dust
11:00 AM 86.0 °F 95.1 °F 75.2 °F 70% 29.95 in 6.2 mi ESE 12.7 mph - N/A   Scattered Clouds
12:00 PM 87.8 °F 97.6 °F 75.2 °F 66% 29.95 in 6.2 mi East 15.0 mph - N/A   Scattered Clouds
1:00 PM 87.8 °F 99.7 °F 77.0 °F 70% 29.92 in 6.2 mi East 12.7 mph - N/A   Mostly Cloudy
2:00 PM 84 °F - 74 °F 66% 29.92 in 15 mi East 12.7 mph - - Rain Light Rain Showers
2:00 PM 84.2 °F 92.3 °F 75.2 °F 74% 29.92 in 6.2 mi East 12.7 mph - N/A Rain Light Rain Showers
3:00 PM 86.0 °F 96.9 °F 77.0 °F 74% 29.89 in 6.2 mi ESE 10.4 mph - N/A   Scattered Clouds
4:00 PM 86.0 °F 95.1 °F 75.2 °F 70% 29.89 in 6.2 mi ESE 11.5 mph - N/A   Scattered Clouds
5:00 PM 84 °F - 75 °F 69% 29.90 in 9 mi East 8.1 mph - -   Partly Cloudy
5:00 PM 84.2 °F 92.3 °F 75.2 °F 74% 29.89 in 6.2 mi East 8.1 mph - N/A   Scattered Clouds
6:00 PM 82.4 °F 89.5 °F 75.2 °F 79% 29.89 in 6.2 mi ESE 4.6 mph - N/A   Scattered Clouds
7:00 PM 82.4 °F 89.5 °F 75.2 °F 79% 29.92 in 6.2 mi ESE 10.4 mph - N/A   Scattered Clouds
8:00 PM 81 °F - 76 °F 80% 29.94 in 15 mi East 8.1 mph - - Rain Light Rain Showers
8:00 PM 80.6 °F 86.2 °F 75.2 °F 84% 29.92 in 6.2 mi East 8.1 mph - N/A   Mostly Cloudy
9:00 PM 80.6 °F 86.2 °F 75.2 °F 84% 29.95 in 6.2 mi ESE 6.9 mph - N/A   Scattered Clouds
10:00 PM 78.8 °F - 73.4 °F 83% 29.95 in 6.2 mi South 8.1 mph - N/A   Mostly Cloudy
11:00 PM 78 °F - 74 °F 86% 29.98 in 12 mi ESE 4.6 mph - - Rain Light Rain Showers
11:00 PM 78.8 °F - 75.2 °F 89% 29.98 in 6.2 mi ESE 4.6 mph - N/A Rain Light Rain Showers